| time (UTC) | temp F | wind direction | speed MPH | gust MPH | rain 1hr in | rain 24hr in | rain mn in | humidity % | barometer mb |
| 20260510194608 | 67 | 234 | 2.0 | 4.0 | 0.00 | 0.00 | 0.00 | 62 | 1009.5 |
| 20260510193558 | 68 | 225 | 2.0 | 3.0 | 0.00 | 0.00 | 0.00 | 60 | 1009.3 |
| 20260510192550 | 68 | 236 | 3.0 | 6.0 | 0.00 | 0.00 | 0.00 | 60 | 1009.4 |
| 20260510191602 | 68 | 232 | 5.0 | 7.0 | 0.00 | 0.00 | 0.00 | 60 | 1009.2 |
| 20260510190534 | 68 | 235 | 5.0 | 9.0 | 0.00 | 0.00 | 0.00 | 60 | 1009.2 |
| 20260510185526 | 69 | 220 | 5.0 | 10.0 | 0.00 | 0.00 | 0.00 | 59 | 1009.0 |
| 20260510184518 | 69 | 201 | 5.0 | 10.0 | 0.00 | 0.00 | 0.00 | 57 | 1009.3 |
| 20260510183611 | 69 | 211 | 5.0 | 8.0 | 0.00 | 0.00 | 0.00 | 59 | 1009.2 |
| 20260510182603 | 70 | 219 | 7.0 | 11.0 | 0.00 | 0.00 | 0.00 | 56 | 1008.9 |
| 20260510181554 | 70 | 220 | 8.0 | 12.0 | 0.00 | 0.00 | 0.00 | 54 | 1008.9 |
| 20260510180547 | 71 | 158 | 6.0 | 11.0 | 0.00 | 0.00 | 0.00 | 54 | 1009.0 |
| 20260510175539 | 71 | 210 | 7.0 | 10.0 | 0.00 | 0.00 | 0.00 | 53 | 1009.0 |
| 20260510174530 | 72 | 210 | 8.0 | 12.0 | 0.00 | 0.00 | 0.00 | 52 | 1009.2 |
| 20260510173522 | 73 | 206 | 7.0 | 14.0 | 0.00 | 0.00 | 0.00 | 49 | 1009.2 |
| 20260510172615 | 73 | 225 | 7.0 | 14.0 | 0.00 | 0.00 | 0.00 | 46 | 1009.2 |
| 20260510171607 | 73 | 193 | 6.0 | 11.0 | 0.00 | 0.00 | 0.00 | 45 | 1009.0 |
| 20260510170559 | 74 | 210 | 8.0 | 15.0 | 0.00 | 0.00 | 0.00 | 45 | 1008.8 |
| 20260510165551 | 74 | 228 | 9.0 | 16.0 | 0.00 | 0.00 | 0.00 | 45 | 1008.9 |
| 20260510164603 | 75 | 187 | 7.0 | 13.0 | 0.00 | 0.00 | 0.00 | 44 | 1008.9 |
| 20260510163535 | 74 | 210 | 8.0 | 15.0 | 0.00 | 0.00 | 0.00 | 45 | 1009.0 |
| 20260510162547 | 74 | 229 | 8.0 | 13.0 | 0.00 | 0.00 | 0.00 | 46 | 1009.0 |
| 20260510161519 | 74 | 211 | 9.0 | 15.0 | 0.00 | 0.00 | 0.00 | 44 | 1009.1 |
| 20260510160611 | 75 | 225 | 11.0 | 15.0 | 0.00 | 0.00 | 0.00 | 42 | 1009.0 |
| 20260510155645 | 75 | 225 | 9.0 | 16.0 | 0.00 | 0.00 | 0.00 | 41 | 1009.1 |
| 20260510154555 | 76 | 219 | 9.0 | 16.0 | 0.00 | 0.00 | 0.00 | 42 | 1009.0 |
| 20260510153547 | 76 | 221 | 9.0 | 14.0 | 0.00 | 0.00 | 0.00 | 42 | 1009.1 |
| 20260510152539 | 75 | 213 | 9.0 | 17.0 | 0.00 | 0.00 | 0.00 | 43 | 1009.2 |
| 20260510151552 | 75 | 217 | 11.0 | 19.0 | 0.00 | 0.00 | 0.00 | 42 | 1009.3 |
| 20260510150523 | 76 | 171 | 8.0 | 15.0 | 0.00 | 0.00 | 0.00 | 42 | 1009.5 |
| 20260510145515 | 76 | 201 | 8.0 | 15.0 | 0.00 | 0.00 | 0.00 | 41 | 1009.3 |
| 20260510144608 | 76 | 231 | 8.0 | 15.0 | 0.00 | 0.00 | 0.00 | 41 | 1009.6 |
| 20260510143600 | 76 | 218 | 9.0 | 15.0 | 0.00 | 0.00 | 0.00 | 41 | 1009.5 |
| 20260510142552 | 76 | 225 | 10.0 | 16.0 | 0.00 | 0.00 | 0.00 | 41 | 1009.7 |
| 20260510141545 | 76 | 206 | 11.0 | 19.0 | 0.00 | 0.00 | 0.00 | 41 | 1009.8 |
| 20260510140536 | 76 | 225 | 10.0 | 12.0 | 0.00 | 0.00 | 0.00 | 41 | 1009.8 |
| 20260510135528 | 76 | 210 | 9.0 | 17.0 | 0.00 | 0.00 | 0.00 | 40 | 1010.0 |
| 20260510134520 | 77 | 230 | 8.0 | 12.0 | 0.00 | 0.00 | 0.00 | 42 | 1010.0 |
| 20260510133612 | 77 | 201 | 9.0 | 12.0 | 0.00 | 0.00 | 0.00 | 42 | 1010.0 |
| 20260510132625 | 76 | 187 | 9.0 | 15.0 | 0.00 | 0.00 | 0.00 | 42 | 1010.2 |
| 20260510131617 | 77 | 226 | 9.0 | 15.0 | 0.00 | 0.00 | 0.00 | 44 | 1010.4 |
| 20260510130549 | 77 | 225 | 8.0 | 14.0 | 0.00 | 0.00 | 0.00 | 44 | 1010.5 |
| 20260510125541 | 76 | 227 | 11.0 | 20.0 | 0.00 | 0.00 | 0.00 | 42 | 1010.6 |
| 20260510124532 | 75 | 236 | 9.0 | 21.0 | 0.00 | 0.00 | 0.00 | 46 | 1010.7 |
| 20260510123526 | 75 | 214 | 10.0 | 18.0 | 0.00 | 0.00 | 0.00 | 47 | 1010.7 |
| 20260510122517 | 74 | 197 | 8.0 | 15.0 | 0.00 | 0.00 | 0.00 | 50 | 1011.0 |
| 20260510121610 | 75 | 206 | 8.0 | 14.0 | 0.00 | 0.00 | 0.00 | 51 | 1011.2 |
| 20260510120602 | 76 | 270 | 9.0 | 11.0 | 0.00 | 0.00 | 0.00 | 51 | 1011.2 |
| 20260510115614 | 76 | 220 | 8.0 | 12.0 | 0.00 | 0.00 | 0.00 | 51 | 1011.3 |
| 20260510114547 | 76 | 216 | 7.0 | 10.0 | 0.00 | 0.00 | 0.00 | 50 | 1011.2 |
| 20260510113538 | 76 | 205 | 7.0 | 14.0 | 0.00 | 0.00 | 0.00 | 51 | 1011.4 |
| 20260510112530 | 75 | 178 | 3.0 | 7.0 | 0.00 | 0.00 | 0.00 | 62 | 1011.5 |
| 20260510111543 | 73 | 163 | 4.0 | 7.0 | 0.00 | 0.01 | 0.00 | 66 | 1011.8 |
| 20260510110656 | 73 | 143 | 5.0 | 9.0 | 0.00 | 0.01 | 0.00 | 65 | 1012.0 |
| 20260510105607 | 73 | 107 | 4.0 | 6.0 | 0.00 | 0.01 | 0.00 | 64 | 1012.2 |
| 20260510104600 | 72 | 155 | 4.0 | 6.0 | 0.00 | 0.02 | 0.00 | 68 | 1012.3 |
| 20260510103551 | 73 | 174 | 5.0 | 7.0 | 0.00 | 0.02 | 0.00 | 63 | 1012.3 |
| 20260510102543 | 74 | 138 | 4.0 | 9.0 | 0.00 | 0.02 | 0.00 | 62 | 1012.2 |
| 20260510101536 | 73 | 102 | 3.0 | 5.0 | 0.00 | 0.02 | 0.00 | 62 | 1012.3 |
| 20260510100527 | 73 | 135 | 3.0 | 4.0 | 0.00 | 0.02 | 0.00 | 62 | 1012.2 |
| 20260510095520 | 73 | 128 | 3.0 | 5.0 | 0.00 | 0.02 | 0.00 | 61 | 1012.3 |
| 20260510094655 | 74 | 144 | 4.0 | 6.0 | 0.00 | 0.02 | 0.00 | 61 | 1012.1 |
| 20260510093605 | 74 | 114 | 4.0 | 5.0 | 0.00 | 0.04 | 0.00 | 61 | 1012.2 |
| 20260510092558 | 74 | 130 | 3.0 | 5.0 | 0.00 | 0.05 | 0.00 | 60 | 1012.2 |
| 20260510091549 | 74 | 124 | 3.0 | 6.0 | 0.00 | 0.05 | 0.00 | 60 | 1012.1 |
| 20260510090542 | 75 | 74 | 3.0 | 4.0 | 0.00 | 0.07 | 0.00 | 57 | 1012.1 |
| 20260510085533 | 79 | 79 | 3.0 | 6.0 | 0.00 | 0.12 | 0.00 | 51 | 1012.3 |
| 20260510084525 | 80 | 0 | 1.0 | 2.0 | 0.00 | 0.18 | 0.00 | 51 | 1012.3 |
| 20260510083519 | 79 | 270 | 0.0 | 2.0 | 0.00 | 0.21 | 0.00 | 53 | 1012.2 |
| 20260510082610 | 78 | 248 | 0.0 | 2.0 | 0.00 | 0.24 | 0.00 | 55 | 1012.4 |
| 20260510081602 | 77 | 229 | 2.0 | 4.0 | 0.00 | 0.31 | 0.00 | 54 | 1012.4 |
| 20260510080555 | 76 | 270 | 2.0 | 3.0 | 0.00 | 0.31 | 0.00 | 56 | 1012.4 |
| 20260510075546 | 76 | 88 | 1.0 | 2.0 | 0.00 | 0.31 | 0.00 | 55 | 1012.5 |
| 20260510074538 | 77 | 90 | 1.0 | 2.0 | 0.00 | 0.31 | 0.00 | 57 | 1012.5 |
| 20260510073531 | 74 | 80 | 1.0 | 3.0 | 0.00 | 0.31 | 0.00 | 59 | 1012.7 |
| 20260510072543 | 74 | 0 | 0.0 | 2.0 | 0.00 | 0.31 | 0.00 | 60 | 1012.7 |
| 20260510071616 | 72 | 0 | 0.0 | 2.0 | 0.00 | 0.31 | 0.00 | 66 | 1012.5 |
| 20260510070609 | 71 | 0 | 0.0 | 2.0 | 0.00 | 0.31 | 0.00 | 64 | 1012.5 |
| 20260510065559 | 69 | 0 | 0.0 | 2.0 | 0.00 | 0.34 | 0.00 | 67 | 1012.3 |
| 20260510064552 | 69 | 353 | 2.0 | 4.0 | 0.00 | 0.38 | 0.00 | 68 | 1012.4 |
| 20260510063544 | 67 | 315 | 0.0 | 2.0 | 0.00 | 0.38 | 0.00 | 80 | 1012.1 |
| 20260510062536 | 62 | 0.0 | 1.0 | 0.00 | 0.38 | 0.00 | 84 | 1012.1 | |
| 20260510061528 | 61 | 315 | 1.0 | 2.0 | 0.00 | 0.38 | 0.00 | 90 | 1012.1 |
| 20260510060520 | 59 | 315 | 1.0 | 2.0 | 0.00 | 0.38 | 0.00 | 91 | 1012.1 |
| 20260510055614 | 58 | 315 | 1.0 | 2.0 | 0.00 | 0.39 | 0.00 | 91 | 1011.9 |
| 20260510054625 | 57 | 315 | 0.0 | 2.0 | 0.00 | 0.41 | 0.00 | 91 | 1011.9 |
| 20260510053557 | 57 | 0.0 | 0.0 | 0.00 | 0.41 | 0.00 | 91 | 1011.9 | |
| 20260510052550 | 57 | 0.0 | 0.0 | 0.00 | 0.41 | 0.00 | 91 | 1011.8 | |
| 20260510051543 | 57 | 315 | 0.0 | 2.0 | 0.00 | 0.41 | 0.00 | 90 | 1011.7 |
| 20260510050617 | 57 | 0.0 | 0.0 | 0.00 | 0.41 | 0.00 | 90 | 1011.8 | |
| 20260510045526 | 56 | 0.0 | 1.0 | 0.00 | 0.43 | 0.00 | 90 | 1011.8 | |
| 20260510044518 | 56 | 0.0 | 0.0 | 0.00 | 0.43 | 0.00 | 90 | 1011.8 | |
| 20260510043611 | 57 | 315 | 0.0 | 2.0 | 0.00 | 0.43 | 0.00 | 90 | 1011.8 |
| 20260510042603 | 57 | 315 | 1.0 | 2.0 | 0.00 | 0.43 | 0.00 | 91 | 1011.6 |
| 20260510041556 | 57 | 315 | 1.0 | 2.0 | 0.00 | 0.43 | 0.00 | 90 | 1011.4 |
| 20260510040547 | 57 | 315 | 1.0 | 2.0 | 0.00 | 0.43 | 0.00 | 90 | 1011.5 |
| 20260510035540 | 58 | 315 | 1.0 | 2.0 | 0.00 | 0.43 | 0.00 | 90 | 1011.6 |
| 20260510034532 | 57 | 315 | 1.0 | 2.0 | 0.00 | 0.43 | 0.00 | 90 | 1011.6 |
| 20260510033526 | 57 | 315 | 0.0 | 2.0 | 0.00 | 0.43 | 0.00 | 90 | 1011.6 |
| 20260510032518 | 57 | 315 | 0.0 | 2.0 | 0.00 | 0.43 | 0.00 | 90 | 1011.6 |
| 20260510031631 | 57 | 315 | 0.0 | 2.0 | 0.00 | 0.43 | 0.00 | 89 | 1011.5 |
| 20260510030602 | 57 | 0.0 | 0.0 | 0.00 | 0.43 | 0.00 | 89 | 1011.4 | |
| 20260510025554 | 58 | 315 | 0.0 | 2.0 | 0.00 | 0.43 | 0.00 | 89 | 1011.4 |
| 20260510024629 | 58 | 315 | 0.0 | 2.0 | 0.00 | 0.43 | 0.00 | 89 | 1011.4 |
| 20260510023539 | 58 | 315 | 1.0 | 3.0 | 0.00 | 0.43 | 0.00 | 89 | 1011.5 |
| 20260510022531 | 58 | 315 | 1.0 | 2.0 | 0.00 | 0.43 | 0.00 | 89 | 1011.4 |
| 20260510021523 | 58 | 315 | 0.0 | 2.0 | 0.00 | 0.43 | 0.00 | 89 | 1011.3 |
| 20260510020515 | 58 | 0.0 | 1.0 | 0.00 | 0.43 | 0.00 | 89 | 1011.2 | |
| 20260510015608 | 58 | 315 | 1.0 | 2.0 | 0.00 | 0.43 | 0.00 | 88 | 1011.3 |
| 20260510014602 | 58 | 0.0 | 1.0 | 0.00 | 0.43 | 0.00 | 88 | 1011.3 | |
| 20260510013552 | 58 | 315 | 0.0 | 2.0 | 0.00 | 0.43 | 0.00 | 88 | 1011.2 |
| 20260510012545 | 58 | 0.0 | 1.0 | 0.00 | 0.43 | 0.00 | 89 | 1011.2 | |
| 20260510011538 | 58 | 0.0 | 1.0 | 0.00 | 0.43 | 0.00 | 89 | 1011.3 | |
| 20260510010529 | 58 | 315 | 0.0 | 3.0 | 0.00 | 0.43 | 0.00 | 90 | 1011.3 |
| 20260510005543 | 58 | 315 | 1.0 | 2.0 | 0.00 | 0.43 | 0.00 | 90 | 1011.4 |
| 20260510004635 | 58 | 315 | 0.0 | 2.0 | 0.00 | 0.43 | 0.00 | 90 | 1011.5 |
| 20260510003607 | 58 | 315 | 0.0 | 2.0 | 0.00 | 0.43 | 0.00 | 90 | 1011.5 |
| 20260510002601 | 58 | 315 | 1.0 | 2.0 | 0.00 | 0.43 | 0.00 | 90 | 1011.5 |
| 20260510001552 | 59 | 315 | 1.0 | 2.0 | 0.00 | 0.43 | 0.00 | 91 | 1011.6 |
| 20260510000544 | 59 | 0.0 | 0.0 | 0.00 | 0.43 | 0.00 | 90 | 1011.7 | |
| 20260509235536 | 59 | 315 | 0.0 | 2.0 | 0.00 | 0.43 | 0.00 | 91 | 1011.8 |
| 20260509234549 | 59 | 315 | 0.0 | 2.0 | 0.00 | 0.43 | 0.00 | 90 | 1011.8 |
| 20260509233521 | 59 | 315 | 0.0 | 2.0 | 0.00 | 0.43 | 0.00 | 90 | 1011.8 |
| 20260509232614 | 60 | 315 | 1.0 | 3.0 | 0.00 | 0.43 | 0.00 | 90 | 1011.8 |
| 20260509231606 | 60 | 270 | 0.0 | 2.0 | 0.00 | 0.43 | 0.00 | 90 | 1011.8 |
| 20260509230558 | 60 | 270 | 0.0 | 2.0 | 0.00 | 0.43 | 0.00 | 90 | 1011.8 |
| 20260509225551 | 60 | 0.0 | 1.0 | 0.00 | 0.43 | 0.00 | 89 | 1011.8 | |
| 20260509224543 | 60 | 0.0 | 0.0 | 0.00 | 0.43 | 0.00 | 89 | 1011.8 | |
| 20260509223535 | 61 | 225 | 0.0 | 2.0 | 0.00 | 0.43 | 0.00 | 89 | 1012.0 |
| 20260509222528 | 61 | 225 | 0.0 | 2.0 | 0.00 | 0.43 | 0.00 | 88 | 1012.0 |
| 20260509221520 | 61 | 225 | 0.0 | 2.0 | 0.00 | 0.43 | 0.00 | 88 | 1012.2 |
| 20260509220633 | 61 | 225 | 1.0 | 2.0 | 0.00 | 0.43 | 0.00 | 88 | 1012.2 |
| 20260509215605 | 61 | 225 | 1.0 | 2.0 | 0.00 | 0.43 | 0.43 | 88 | 1012.2 |
| 20260509214558 | 61 | 225 | 1.0 | 2.0 | 0.00 | 0.43 | 0.43 | 87 | 1012.1 |
| 20260509213549 | 61 | 225 | 2.0 | 3.0 | 0.00 | 0.43 | 0.43 | 85 | 1012.0 |
| 20260509212541 | 60 | 0.0 | 1.0 | 0.00 | 0.43 | 0.43 | 84 | 1012.0 | |
| 20260509211553 | 61 | 225 | 1.0 | 2.0 | 0.00 | 0.43 | 0.43 | 84 | 1012.0 |
| 20260509210546 | 61 | 225 | 1.0 | 2.0 | 0.00 | 0.43 | 0.43 | 82 | 1012.1 |
| 20260509205517 | 61 | 225 | 0.0 | 2.0 | 0.00 | 0.43 | 0.43 | 81 | 1011.8 |
| 20260509204649 | 61 | 225 | 1.0 | 2.0 | 0.00 | 0.43 | 0.43 | 81 | 1011.7 |
| 20260509203601 | 61 | 225 | 1.0 | 2.0 | 0.00 | 0.43 | 0.43 | 80 | 1011.8 |
| 20260509202553 | 62 | 225 | 1.0 | 3.0 | 0.00 | 0.43 | 0.43 | 80 | 1011.6 |
| 20260509201545 | 62 | 225 | 3.0 | 4.0 | 0.00 | 0.43 | 0.43 | 79 | 1011.4 |
| 20260509200538 | 63 | 203 | 3.0 | 5.0 | 0.00 | 0.43 | 0.43 | 78 | 1011.3 |